Brookings, OR

6:32 AM PDT on September 21, 2017 (GMT -0700)
Brookings State

Weather History for KBOK - September, 2013

Change the Weather History Date:

Wednesday, September 11, 2013

  Actual Average Record
Temperature  
Mean Temperature 62 °F -  
Max Temperature 64 °F 68 °F 93 °F (1942)
Min Temperature 59 °F 52 °F 41 °F (1964)
Degree Days  
Heating Degree Days 4    
Growing Degree Days 12 (Base 50)    
Moisture  
Dew Point 58 °F    
Average Humidity 91    
Maximum Humidity 100    
Minimum Humidity 77    
Precipitation  
Precipitation 0.00 in - - ()
Sea Level Pressure  
Sea Level Pressure 29.97 in    
Wind  
Wind Speed 4 mph (SSE)    
Max Wind Speed 9 mph    
Max Gust Speed -    
Visibility 6 miles    
Events Rain    
Averages and records for this station are not official NWS values.
T = Trace of Precipitation, MM = Missing Value Source: NWS Daily Summary

Daily Weather History Graph

Daily Weather History Graph

Search for Another Location

Airport or City:

Trip Planner

Search our weather history database for the weather conditions in past years. The results will help you decide how hot, cold, wet, or windy it might be!

Date:

Astronomy

Sep. 11, 2013 Rise Set
Actual Time 6:53 AM PDT 7:33 PM PDT
Civil Twilight 6:25 AM PDT 8:01 PM PDT
Nautical Twilight 5:51 AM PDT 8:34 PM PDT
Astronomical Twilight 5:17 AM PDT 9:08 PM PDT
Moon 1:34 PM PDT (9/11) 11:27 PM PDT (9/11)
Length of Visible Light 13h 35m
Length of Day
12h 39m
Waxing Crescent, 40% of the Moon is Illuminated
Sep 11
Waxing Crescent
Sep 12
First Quarter
Sep 19
Full
Sep 26
Last Quarter
Oct 4
New

Hourly Weather History & Observations

Time (PDT) Temp. Dew Point Humidity Pressure Visibility Wind Dir Wind Speed Gust Speed Precip Events Conditions
12:04 AM 60.8 °F 57.2 °F 88% 29.90 in 10.0 mi SSE 8.1 mph - 0.00 in Rain Light Rain
12:56 AM 59.0 °F 57.9 °F 96% 29.91 in 5.0 mi Variable 6.9 mph - 0.00 in Rain Light Rain
1:35 AM 59.0 °F 57.2 °F 94% 29.91 in 5.0 mi Variable 5.8 mph - 0.00 in Rain Light Rain
1:56 AM 59.0 °F 57.9 °F 96% 29.90 in 4.0 mi SE 3.5 mph - 0.00 in   Overcast
2:56 AM 59.0 °F 57.9 °F 96% 29.91 in 5.0 mi SE 3.5 mph - 0.00 in Rain Light Rain
3:09 AM 59.0 °F 57.2 °F 94% 29.91 in 4.0 mi South 4.6 mph - 0.00 in Rain Light Rain
3:40 AM 59.0 °F 57.2 °F 94% 29.91 in 5.0 mi SE 3.5 mph - 0.00 in Rain Light Rain
3:56 AM 59.0 °F 57.9 °F 96% 29.92 in 3.0 mi SSE 5.8 mph - 0.00 in Rain Light Rain
4:01 AM 59.0 °F 57.2 °F 94% 29.92 in 2.5 mi SE 4.6 mph - 0.00 in Rain Light Rain
4:23 AM 59.0 °F 57.2 °F 94% 29.92 in 4.0 mi Variable 3.5 mph - 0.00 in   Overcast
4:36 AM 59.0 °F 57.2 °F 94% 29.92 in 2.5 mi Variable 3.5 mph - 0.00 in   Overcast
4:42 AM 59.0 °F 57.2 °F 94% 29.92 in 1.8 mi SE 3.5 mph - 0.00 in   Overcast
4:49 AM 59.0 °F 57.2 °F 94% 29.93 in 1.5 mi SE 3.5 mph - 0.00 in   Overcast
4:56 AM 59.0 °F 57.9 °F 96% 29.93 in 1.5 mi Calm Calm - 0.00 in Rain Light Rain
5:07 AM 59.0 °F 57.2 °F 94% 29.93 in 2.5 mi Calm Calm - 0.00 in   Overcast
5:27 AM 59.0 °F 57.2 °F 94% 29.93 in 3.0 mi Variable 3.5 mph - 0.00 in   Overcast
5:42 AM 59.0 °F 59.0 °F 100% 29.94 in 2.0 mi Calm Calm - 0.00 in   Overcast
5:56 AM 59.0 °F 57.9 °F 96% 29.94 in 3.0 mi Calm Calm - 0.00 in   Overcast
6:16 AM 59.0 °F 57.2 °F 94% 29.94 in 2.0 mi Calm Calm - 0.00 in Rain Light Rain
6:24 AM 59.0 °F 57.2 °F 94% 29.94 in 3.0 mi Calm Calm - 0.00 in Rain Light Rain
6:34 AM 59.0 °F 57.2 °F 94% 29.95 in 5.0 mi Calm Calm - 0.00 in   Overcast
6:43 AM 59.0 °F 57.2 °F 94% 29.95 in 2.5 mi Calm Calm - 0.00 in   Overcast
6:56 AM 59.0 °F 57.9 °F 96% 29.96 in 4.0 mi Calm Calm - 0.00 in   Overcast
7:21 AM 59.0 °F 57.2 °F 94% 29.96 in 2.0 mi Calm Calm - N/A   Overcast
7:27 AM 59.0 °F 57.2 °F 94% 29.96 in 3.0 mi Calm Calm - N/A   Overcast
7:56 AM 59.0 °F 57.9 °F 96% 29.96 in 3.0 mi Calm Calm - N/A   Overcast
8:24 AM 59.0 °F 57.2 °F 94% 29.96 in 4.0 mi Calm Calm - N/A   Overcast
8:56 AM 59.9 °F 57.9 °F 93% 29.96 in 6.0 mi WSW 3.5 mph - N/A   Overcast
9:56 AM 59.0 °F 57.9 °F 96% 29.97 in 6.0 mi NW 4.6 mph - N/A   Overcast
10:49 AM 62.6 °F 57.2 °F 82% 29.98 in 10.0 mi NW 5.8 mph - N/A   Overcast
10:56 AM 61.9 °F 57.9 °F 87% 29.98 in 10.0 mi WNW 5.8 mph - N/A   Overcast
11:39 AM 60.8 °F 57.2 °F 88% 30.00 in 10.0 mi Variable 4.6 mph - N/A   Overcast
11:56 AM 61.0 °F 56.8 °F 86% 30.01 in 10.0 mi Variable 3.5 mph - N/A   Overcast
12:21 PM 60.8 °F 57.2 °F 88% 30.01 in 9.0 mi SSE 9.2 mph - N/A   Overcast
12:56 PM 61.9 °F 57.9 °F 87% 30.01 in 10.0 mi SSE 8.1 mph - N/A   Overcast
1:03 PM 62.6 °F 57.2 °F 82% 30.01 in 9.0 mi SSE 9.2 mph - N/A   Overcast
1:14 PM 64.4 °F 57.2 °F 77% 30.02 in 10.0 mi Variable 6.9 mph - 0.00 in Rain Light Rain
1:56 PM 63.9 °F 57.9 °F 81% 30.02 in 10.0 mi SSE 8.1 mph - 0.00 in Rain Light Rain
2:56 PM 63.9 °F 57.9 °F 81% 30.01 in 10.0 mi South 9.2 mph - 0.00 in Rain Light Rain
3:56 PM 63.9 °F 57.9 °F 81% 30.01 in 10.0 mi South 8.1 mph - 0.00 in   Overcast
4:56 PM 63.9 °F 57.9 °F 81% 30.01 in 10.0 mi South 8.1 mph - 0.00 in Rain Light Rain
5:56 PM 63.0 °F 57.9 °F 84% 30.01 in 10.0 mi SSE 5.8 mph - 0.00 in Rain Light Rain
6:56 PM 61.9 °F 57.9 °F 87% 30.00 in 10.0 mi ESE 5.8 mph - 0.00 in   Overcast
7:56 PM 61.9 °F 57.9 °F 87% 30.01 in 10.0 mi Variable 3.5 mph - 0.00 in   Overcast
8:56 PM 61.0 °F 57.9 °F 90% 30.02 in 10.0 mi SE 4.6 mph - 0.00 in Rain Light Rain
9:56 PM 61.0 °F 57.9 °F 90% 30.02 in 10.0 mi SE 3.5 mph - 0.00 in   Overcast
10:15 PM 60.8 °F 57.2 °F 88% 30.02 in 10.0 mi SE 4.6 mph - N/A   Overcast
10:32 PM 60.8 °F 57.2 °F 88% 30.02 in 10.0 mi SE 3.5 mph - N/A   Overcast
10:56 PM 61.0 °F 57.9 °F 90% 30.02 in 10.0 mi SSE 3.5 mph - N/A   Overcast
11:56 PM 61.0 °F 57.9 °F 90% 30.02 in 9.0 mi Calm Calm - N/A   Overcast